User: anonymous
Location: Mentone
(34.5413°N, 85.5351°W)
Time: 13:46:19
(UTC-05:00)
Language:

A-11 Canister half - Orbit

View from above orbital plane
View from above orbital plane
View from above satellite
View from above satellite

Ground track
Ground track

The orbit data is extracted from the following two-line orbital elements,

1 00053U 60009E   14245.29923312 -.00000084  00000-0  00000+0 0  5583
2 00053 047.2754 301.2821 0098891 310.3563 168.4968 12.17145032410948
Epoch (UTC): 02 September 2014 07:10:53
Eccentricity: 0.0098891
inclination: 47.2754°
perigee height: 1526 km
apogee height: 1684 km
right ascension of ascending node: 301.2821°
argument of perigee: 310.3563°
revolutions per day: 12.17145032
mean anomaly at epoch: 168.4968°
orbit number at epoch: 41094

The dashed part of the orbit path shows where the satellite is in the earth's shadow,  

DLR